Location: Roland
(31.1349°N, 85.4372°W)
Time: 03:50:13
(UTC+00:00)

Courier 1B - Pass Details

Date: 19 April 2021
Orbit: 962 x 1209 km, 28.3° (Epoch: 07 May)

Event Time Altitude Azimuth Distance (km) Brightness Sun altitude
Rises 19:44:00 0° 259° (W) 3,675 11.0 55.4°
Reaches altitude 10° 19:46:42 10° 257° (WSW) 2,708 10.6 54.9°
Maximum altitude 19:53:09 68° 175° (S) 1,025 8.8 53.7°
Drops below altitude 10° 19:59:34 10° 94° (E) 2,698 9.6 52.4°
Sets 20:02:15 0° 92° (E) 3,660 10.2 51.9°
